Regional Weather Roundup
Issued by NWS

Home | Current Version | Previous Version | Text Only | Print | Product List | Glossary Off
Versions: 1 2 3 4 5 6 7 8 9 10 11 12 13 14 15 16 17 18 19 20 21 22 23 24 25 26 27 28 29 30 31 32 33 34 35 36 37 38 39 40 41 42 43 44 45 46 47 48 49 50

000
ASUS43 KFSD 181102
RWRSD

WEATHER ROUNDUP FOR SOUTH DAKOTA
NATIONAL WEATHER SERVICE SIOUX FALLS SD
600 AM CDT FRI APR 18 2014

NOTE: "FAIR" INDICATES FEW OR NO CLOUDS BELOW 12,000 FEET WITH NO
SIGNIFICANT WEATHER AND/OR OBSTRUCTIONS TO VISIBILITY.


SDZ001>005-009-010-012>017-181200-
NORTHWEST AND NORTH CENTRAL SOUTH DAKOTA

CITY           SKY/WX    TMP DP  RH WIND       PRES   REMARKS
FAITH            N/A     33  26  75 SE17      29.88F WCI  22
MOBRIDGE       CLOUDY    36  25  64 SE17      29.98F
$$

SDZ012>016-024>037-041>051-057-063-072>074-181200-
SOUTHWEST AND SOUTH CENTRAL SOUTH DAKOTA

CITY           SKY/WX    TMP DP  RH WIND       PRES   REMARKS
RAPID CTY ARPT PTCLDY    32  30  92 CALM      29.83F
PIERRE         CLEAR     36  26  67 E13       29.97F
CUSTER         CLEAR     36  31  82 CALM      29.86F
ELLSWORTH AFB  PTCLDY    39  34  83 S6        29.82F
PHILIP         PTCLDY    33  28  81 E10       29.89F WCI  25
PINE RIDGE     PTCLDY    42  36  79 SW6       29.88S
WINNER         FAIR      43  31  62 S24G35    29.96F
$$

SDZ004>011-016>023-039-040-181200-
NORTHEAST SOUTH DAKOTA

CITY           SKY/WX    TMP DP  RH WIND       PRES   REMARKS
ABERDEEN       CLOUDY    35  20  54 E14       30.15F WCI  26
WATERTOWN      CLOUDY    33  22  63 SE13      30.18F WCI  24
SISSETON         N/A     32  25  75 SE6       30.24F WCI  26
$$

SDZ017-020-022-023-036>040-048>070-181200-
SOUTHEAST SOUTH DAKOTA

CITY           SKY/WX    TMP DP  RH WIND       PRES   REMARKS
SIOUX FALLS    MOCLDY    33  28  81 SE13      30.23S WCI  24
HURON          MOCLDY    35  27  72 SE15G22   30.12F WCI  25
CHAMBERLAIN      N/A     36  26  67 SE17      30.03F
MITCHELL       CLOUDY    35  28  75 SE20      30.15F WCI  24
YANKTON        CLEAR     34  28  80 E9        30.21S WCI  26
$$

ABBREVIATIONS USED IN REMARKS
   TC - TEMPERATURE IN CELSIUS
  WCI - WIND CHILL INDEX
   HX - HEAT INDEX
  VSB - VISIBILITY




USA.gov is the U.S. government's official web portal to all federal, state and local government web resources and services.